Location: Unspecified
(0.0000°N, 0.0000°E)
Time: 12:07:44
(UTC+02:00)

ARIANE 5 R/B - Visible Passes

Search period start: 26 June 2016 00:00
Search period end: 06 July 2016 00:00
Orbit: 626 x 38477 km, 7.0° (Epoch: 22 June)

Date Brightness Start Highest point End Pass type
(mag) Time Alt. Az. Time Alt. Az. Time Alt. Az.
27 Jun 5.7 07:09:34 14° WSW 07:18:13 70° S 18:08:36 10° E visible
28 Jun 4.8 06:14:50 40° WSW 06:18:17 65° S 17:07:58 10° E visible
29 Jun 4.7 05:20:06 57° SSE 05:20:06 57° SSE 16:05:10 10° E visible
30 Jun 5.9 04:25:22 27° ESE 04:25:22 27° ESE 04:32:57 10° E visible
03 Jul 9.3 13:52:00 10° W 15:24:46 36° W 19:24:40 10° W visible
04 Jul 6.2 00:17:18 10° W 00:24:25 25° W 00:24:25 25° W visible
04 Jul 5.1 12:45:17 10° W 14:26:17 51° W 23:29:39 59° WNW visible
05 Jul 4.7 11:42:38 10° W 13:26:41 66° W 22:34:55 60° ENE visible
